Northwest River Forecast Center River Conditions Summary
Enter Search Selection
  Forecast Points Only

Minutes since last post:9
Latency (Post Time - Latest Obs Time):5
Click on column header to sort on the field
#IDHSADescriptionStateCountyElevationObservation TimeStageDischargeStatus
0GORW1SEWSKAGIT - AT NEWHALEMWAWHATCOM4022024-07-23 22:30:0083.2728630
1CONW1SEWSKAGIT - NEAR CONCRETEWASKAGIT1302024-07-23 22:30:0016.0286200
2CLDI1OTXST JOE - AT CALDERIDSHOSHONE20962024-07-23 22:30:005.886260
3RAWW1SEWCOWLITZ - AT RANDLEWALEWIS8902024-07-23 22:30:004.6211770
4VIDO3PQRMCKENZIE - NEAR VIDAORLANE8562024-07-23 22:30:001.3223740
5SMRW1SEWSAMISH - NEAR BURLINGTONWASKAGIT02024-07-23 22:30:004.03330
6JFFO3PQRSANTIAM - AT JEFFERSONORMARION2202024-07-23 22:30:002.5620840
7HOPW1OTXPALOUSE - AT HOOPERWAWHITMAN10412024-07-23 22:30:002.87220
8GREW4RIWGREYS - AB RES NR ALPINEWYLINCOLN57202024-07-23 22:30:001.824830
9MVEW1SEWSKAGIT - NEAR MT VERNONWASKAGIT02024-07-23 22:30:0011.9893030
10HLKW1PDTYAKIMA - NEAR HORLICKWAKITTITAS17002024-07-23 22:30:0031.2833850
11BCLO3PQRNORTH SANTIAM - AT NIAGARAORLINN10942024-07-23 22:30:003.1112670
12HEII1PIHSNAKE - NEAR HEISEIDBONNEVILLE50152024-07-23 22:30:005.31107340
13WTLO3PQRSOUTH SANTIAM - AT WATERLOOORLINN3702024-07-23 22:30:002.999730
14PRLI1BOISF PAYETTE - AT LOWMANIDBOISE37902024-07-23 22:30:003.514890
15ALBO3PQRWILLAMETTE - AT ALBANYORLINN1672024-07-23 22:30:003.2754300
16UMAO3PDTUMATILLA - NEAR UMATILLAORUMATILLA3302024-07-23 22:30:002.75780
17MLKW1PDTMILL CREEK - NR WALLA WALLAWAWALLA WALLA19962024-07-23 22:30:0013.2300
18ORTW1SEWPUYALLUP - NEAR ORTINGWAPIERCE3532024-07-23 22:30:005.465520
19ELKO3MFRELK CREEK - NEAR TRAILORJACKSON14552024-07-23 22:30:002.2440
20BRFI1BOISF BOISE - NR FEATHERVILLEIDELMORE42202024-07-23 22:30:001.842480
21DLLO3PQRTUALATIN - NEAR DILLEYORWASHINGTON1472024-07-23 22:30:0011.582330
22SLMO3PQRWILLAMETTE - AT SALEMORMARION1062024-07-23 22:30:005.3573870
23SJMI1OTXST JOE - AT ST MARIESIDBENEWAH21002024-07-23 22:30:0028.17 0
24PACW4RIWPACIFIC CREEK - AT MORANWYTETON67202024-07-23 22:30:004.41010
25TRBO3PQRMCKENZIE - BELOW TRAIL BRIDGE DAMORLINN19802024-07-23 22:30:006.467850
26BTSI1BOIBOISE - NR TWIN SPRINGSIDADA32562024-07-23 22:30:005.644420
27HARO3PQRWILLAMETTE - AT HARRISBURGORLINN2882024-07-23 22:30:002.3150480
28SRMW1SEWSKAGIT - AT MARBLEMOUNTWASKAGIT3052024-07-23 22:30:003.3632020
29PRPI1BOIPAYETTE - NEAR PAYETTEIDPAYETTE21382024-07-23 22:30:005.1518310
30SALW4RIWSALT - ABV PALISADES RES NR ETNAWYLINCOLN56762024-07-23 22:30:001.975200
31PALI1PIHSNAKE - NEAR IRWINIDBONNEVILLE53532024-07-23 22:30:008.0695820
32HRSI1BOIPAYETTE - NEAR HORSESHOE BENDIDBOISE26262024-07-23 22:30:006.2735100
33SHAW1SEWBAKER - AT CONCRETEWASKAGIT1902024-07-23 22:30:003.0615110
34MONO3PDTNF JOHN DAY - AT MONUMENTORGRANT19602024-07-23 22:30:002.561100
35OMCN2LKNOWYHEE - NEAR MTN CITYNVELKO55602024-07-23 22:25:004.621100
36KLMW1PQRCOLUMBIA RIV AT KALAMAWACOWLITZ02024-07-23 22:24:002.12 0
37APLO3MFRAPPLEGATE - APPLEGATE RESERVOIRORJACKSON19902024-07-23 22:20:001963.36 0
38SWAI1BOISNAKE - BELOW SWAN FALLSIDADA22712024-07-23 22:20:0021.8875890
39KTFW1OTXCOLVILLE - AT KETTLE FALLSWASTEVENS14002024-07-23 22:20:005.28710
40ARLW1SEWSTILLAGUAMISH - NEAR ARLINGTONWASNOHOMISH652024-07-23 22:20:000.585710
41VENO3PQRNEHALEM - NR VERNONIAORCOLUMBIA6402024-07-23 22:20:004.1150
42MYPO3MFRSF COQUILLE - AT MYRTLE POINTORCOOS602024-07-23 22:20:003.861100
43LOPW1PQRCOLUMBIA - AT LONGVIEWWACOWLITZ12024-07-23 22:18:002.73 0
44VAPW1PQRCOLUMBIA - AT VANCOUVER POPWACLARK22024-07-23 22:18:002.34 0
45CHAO3MFRCHARLESTON TIDEORCOOS02024-07-23 22:18:006.57 0
46SKAW1PQRCOLUMBIA - AT SKAMOKAWAWAWAHKIAKUM12024-07-23 22:18:005.14 0
47ASTO3PQRTONGUE POINT TIDE GAGEORCLATSOP22024-07-23 22:18:006.73 0
48SHNO3PQRCOLUMBIA - AT ST HELENSORCOLUMBIA12024-07-23 22:18:001.86 0
49JASO3PQRMF WILLAMETTE - AT JASPERORLANE5132024-07-23 22:15:003.731750
50WSNO3MFRS UMPQUA - NEAR WINSTONORDOUGLAS4632024-07-23 22:15:003.221150
51PULW1OTXSF PALOUSE - AT PULLMANWAWHITMAN23262024-07-23 22:15:000.6410
52PATW1OTXMETHOW - NEAR PATEROSWAOKANOGAN9002024-07-23 22:15:002.236120
53GRAO3MFRROGUE - AT GRANTS PASSORJOSEPHINE8802024-07-23 22:15:001.5316250
54EKTO3MFRUMPQUA - NEAR ELKTONORDOUGLAS902024-07-23 22:15:002.9410340
55ORFI1MSOCLEARWATER - AT OROFINOIDCLEARWATER9912024-07-23 22:15:003.1923100
56EGLO3MFRROGUE - NEAR EAGLE POINTORJACKSON12702024-07-23 22:15:003.5118410
57GIBO3PDTUMATILLA - NEAR GIBBONORUMATILLA18552024-07-23 22:15:002.69430
58DARM8MSOBITTERROOT - NEAR DARBYMTRAVALLI39422024-07-23 22:15:001.863530
59GVZW4RIWGROS VENTRE - AT ZENITHWYTETON62602024-07-23 22:15:0018.341240
60LNDW1SEWCEDAR - NEAR LANDSBURGWAKING5662024-07-23 22:15:001.273320
61PWDO3BOIPOWDER - AT BAKERORBAKER34402024-07-23 22:15:003.052280
62ORCO3PQRWILLAMETTE - BL FALLS AT OR CITYORCLACKAMAS102024-07-23 22:15:004.09 0
63DETO3PQRNORTH SANTIAM - DETROIT DAMORMARION15702024-07-23 22:15:001553.534023200
64MFDO3MFRBEAR CREEK - AT MEDFORDORJACKSON13422024-07-23 22:15:002.6300
65LGNO3PDTGRANDE RONDE - NEAR PERRYORUNION29502024-07-23 22:15:001.01290
66MYKO3PDTMCKAY CREEK - NEAR PILOT ROCKORUMATILLA13432024-07-23 22:15:002.2310
67CRNW1SEWSNOQUALMIE - NEAR CARNATIONWAKING602024-07-23 22:15:0044.969990
68BFEI1OTXKOOTENAI - AT BONNERS FERRYIDBOUNDARY17002024-07-23 22:15:0048.77 0
69SRMO3PQRSANDY - NEAR MARMOTORCLACKAMAS7302024-07-23 22:15:00690.654340
70KIOW1PDTYAKIMA - AT KIONAWAYAKIMA4542024-07-23 22:15:003.7816340
71FSSO3PQRNEHALEM - FOSSORTILLAMOOK332024-07-23 22:15:001.771890
72FRYW1OTXKETTLE - NEAR FERRYWAFERRY18372024-07-23 22:15:009.933620
73LUCI1BOIBOISE - LUCKY PEAK DAMIDADA28402024-07-23 22:15:003052.92 0
74STII1BOISF CLEARWATER - AT STITESIDIDAHO13002024-07-23 22:15:002.962790
75WRMO3PDTMALHEUR - WARM SPRINGS DAMORMALHEUR33902024-07-23 22:15:003392.85 0
76MEHO3PQRNORTH SANTIAM - AT MEHAMAORMARION6022024-07-23 22:15:003.3312480
77MLBO3MFRBIG BUTTE CREEK - NEAR MCLEODORJACKSON15262024-07-23 22:15:002.55390
78WLAO3PQRS YAMHILL - NEAR WILLAMINAORPOLK2362024-07-23 22:15:001.7240
79LSTO3PDTLOSTINE - NR LOSTINEORWALLOWA36502024-07-23 22:15:002.381090
80ARWO3MFRAPPLEGATE - NEAR WILDERVILLEORJOSEPHINE9502024-07-23 22:15:002.362910
81SNQW1SEWNF SNOQUALMIE - NEAR SNOQUALMIE FALLSWAKING11302024-07-23 22:15:002.08940
82TEAI1PIHTETON - NEAR ST. ANTHONYIDFREMONT49702024-07-23 22:15:002.737500
83TOPI1PIHPORTNEUF - AT TOPAZIDBANNOCK49182024-07-23 22:15:002.71660
84MKNW1SEWNISQUALLY - AT MCKENNAWATHURSTON2852024-07-23 22:15:001.295870
85WTHW1OTXMETHOW - AT WINTHROPWAOKANOGAN17182024-07-23 22:15:0010.394140
86GARW1SEWSF SNOQUALMIE - NEAR GARCIAWAKING14482024-07-23 22:15:0010.41550
87TONW1OTXOKANOGAN - NEAR TONASKETWAOKANOGAN8612024-07-23 22:15:004.719300
88CHEI1PIHFALL RIVER - NEAR CHESTERIDFREMONT50522024-07-23 22:15:001.781840
89NFNW1SEWNF NOOKSACK - NEAR GLACIERWAWHATCOM12452024-07-23 22:15:002.627260
90SATI1OTXST MARIES - NEAR SANTAIDBENEWAH21722024-07-23 22:15:003.99540
91BWMI1PIHBIG WOOD - BELOW MAGIC DAM NEAR RICHFIELDIDBLAINE46622024-07-23 22:15:004.688860
92GOSO3PQRCOAST FORK WILLAMETTE - NEAR GOSHENORLANE4742024-07-23 22:15:001.321700
93OGCN2LKNOWYHEE - NR GOLD CKNVELKO61192024-07-23 22:15:001.83960
94ARGW1SEWNF STILLAGUAMISH - NEAR ARLINGTONWASNOHOMISH892024-07-23 22:15:001.993020
95APRO3MFRAPPLEGATE - NEAR APPLEGATEORJACKSON12852024-07-23 22:15:001.72710
96RYGO3MFRROGUE - AT RAYGOLDORJACKSON11222024-07-23 22:15:001.416950
97PRDW1OTXCOLUMBIA - BLO PRIEST RAPIDS DAMWAGRANT3882024-07-23 22:15:0017.031350800
98LAUW1OTXKETTLE - AT LAURIERWAFERRY14262024-07-23 22:15:003.698680
99SLTW1SEWSULTAN - NEAR SULTANWASNOHOMISH2902024-07-23 22:15:0053120
100LEOI1OTXKOOTENAI - AT LEONIAIDBOUNDARY17902024-07-23 22:15:0014.55136900
101ECDO3MFRELK CREEK - NEAR DRAINORDOUGLAS6892024-07-23 22:15:000.720
102WFBM8MSOWF BITTERROOT - NEAR CONNERMTRAVALLI45812024-07-23 22:15:001.571670
103FALO3PQRFALL CREEK - FALL CREEK RESERVOIRORLANE8342024-07-23 22:15:00816.5 0
104SATW1SEWSATSOP - NEAR SATSOPWAGRAYS HARBOR212024-07-23 22:15:0028.033870
105RNTW1SEWCEDAR - AT RENTONWAKING152024-07-23 22:15:007.92480
106SIFI1PIHSNAKE - AB EAGLE ROCK NR IDAHO FALLSIDBONNEVILLE47302024-07-23 22:15:007.5958030
107PRTI1OTXPRIEST - NEAR PRIEST RIVERIDBONNER20902024-07-23 22:15:001.094500
108BEUO3BOINF MALHEUR - AT BEULAHORMALHEUR32702024-07-23 22:15:0032410
109TOLW1SEWTOLT - NEAR CARNATIONWAKING3482024-07-23 22:15:004.661870
110WCHW1SEWSAUK - ABOVE WHITE CHUCKWASNOHOMISH9302024-07-23 22:15:002.744800
111UMTW1PDTYAKIMA - AT UMTANUMWAKITTITAS13002024-07-23 22:15:0032.637030
112BFTI1PIHSNAKE - NEAR BLACKFOOTIDBINGHAM44002024-07-23 22:15:003.6132810
113COTO3PQRCOAST FORK WILLAMETTE - COTTAGE GROVE DAMORLANE8002024-07-23 22:15:003.01650
114SNAI1PIHSNAKE - AT BLACKFOOTIDBINGHAM44902024-07-23 22:15:005.1831030
115EUGO3PQRWILLAMETTE - AT EUGENEORLANE3902024-07-23 22:15:0010.5737770
116SHYI1PIHSNAKE - NEAR SHELLEYIDBINGHAM45992024-07-23 22:15:006.7650280
117PESW1OTXWENATCHEE - AT PESHASTINWACHELAN10282024-07-23 22:15:002.8112190
118TANW1SEWMF SNOQUALMIE - NEAR TANNERWAKING7802024-07-23 22:15:001.73530
119DRMM8MSOCLARK FORK - NR DRUMMONDMTGRANITE33792024-07-23 22:15:002.73620
120PRCM8MSOPROSPECT CREEK - AT THOMPSON FALLSMTSANDERS23822024-07-23 22:15:000.94820
121MAYW1SEWCOWLITZ - BELOW MAYFIELD DAMWALEWIS2272024-07-23 22:15:009.8423570
122ANAW1OTXSNAKE - NEAR ANATONEWAASOTIN8072024-07-23 22:15:004.32176010
123PRCI1OTXNF COEUR D ALENE - NEAR PRICHARDIDSHOSHONE24852024-07-23 22:15:001.131030
124REXI1PIHHENRYS FORK - AT REXBURGIDMADISON48062024-07-23 22:15:003.29600
125WARO3BOIMALHEUR - BLO WARM SPRS RES NR RIVERSIDEORMALHEUR33052024-07-23 22:15:005.084810
126CTLI1OTXCOEUR D ALENE - AT CATALDOIDKOOTENAI21002024-07-23 22:15:0032.744590
127MROW1SEWSNOHOMISH - NEAR MONROEWASNOHOMISH132024-07-23 22:15:001.0123060
128WAUO3PQRCOLUMBIA - AT WAUNAORCLATSOP12024-07-23 22:12:004.85 0
129MNRO3PQRLONG TOM - AT MONROEORBENTON2712024-07-23 22:10:004.22310
130MCMW1SEWMINERAL CREEK - NEAR MINERALWALEWIS13402024-07-23 22:00:008.6440
131OKNW1OTXOKANOGAN - AT OROVILLEWAOKANOGAN9002024-07-23 22:00:006.262650
132BLUO3PQRBLUE - BLUE RESERVOIRORLANE13572024-07-23 22:00:003.491980
133LGDW1OTXSNAKE - LOWER GRANITE DAMWAWHITMAN7382024-07-23 22:00:00733.95 0
134HWRI1PIHBIG LOST - AT HOWELL RANCH NEAR CHILLYIDCUSTER66222024-07-23 22:00:001.341870
135LGRW1SEWNISQUALLY - AT LA GRANDEWAPIERCE4902024-07-23 22:00:0047490
136CENW1SEWCHEHALIS - NEAR CENTRALIAWALEWIS1852024-07-23 22:00:00151.862420
137MCMO3PQRS YAMHILL - AT MCMINNVILLEORYAMHILL622024-07-23 22:00:009.33350
138ARDW1OTXENTIAT - NEAR ARDENVOIRWACHELAN15612024-07-23 22:00:001.851740
139WEII1BOISNAKE - AT WEISERIDWASHINGTON20862024-07-23 22:00:003.53111270
140TLRW1SEWSF TOLT - TOLT RESERVOIRWAKING17652024-07-23 22:00:001757.54 0
141DWRI1MSONF CLEARWATER - DWORSHAK DAMIDCLEARWATER9952024-07-23 22:00:001578.54 0
142FRNO3PQRLONG TOM - FERN RIDGE DAMORLANE3742024-07-23 22:00:001.68480
143TRAO3PQRTRASK - TILLAMOOKORTILLAMOOK502024-07-23 22:00:006.161450
144SLKW1SEWSULTAN - SPADA LAKEWASNOHOMISH13702024-07-23 22:00:001445.28 0
145WELW1OTXCOLUMBIA - WELLS DAMWADOUGLAS7812024-07-23 22:00:00779.09 0
146HOTI1BOIBRUNEAU - NEAR HOT SPRINGSIDOWYHEE25992024-07-23 22:00:004.77990
147GCDW1OTXCOLUMBIA - GRAND COULEE DAMWAGRANT17002024-07-23 22:00:001287.4 0
148SELI1MSOSELWAY - NEAR LOWELLIDIDAHO15402024-07-23 22:00:003.5710660
149LOCI1MSOLOCHSA - NEAR LOWELLIDIDAHO14532024-07-23 22:00:002.347390
150GPRO3PQRMIDDLE SANTIAM - GREEN PETER DAMORLINN10152024-07-23 22:00:00986.59 0
151PARW1PDTYAKIMA - NEAR PARKERWAYAKIMA8892024-07-23 22:00:002.16340
152LOPO3PQRMF WILLAMETTE - LOOKOUT POINT DAMORLANE7122024-07-23 22:00:00873.04 0
153JDAO3PDTCOLUMBIA - JOHN DAY DAMORSHERMAN2682024-07-23 22:00:00263.42 0
154CIYW1SEWCISPUS - NEAR RANDLEWALEWIS12602024-07-23 22:00:0013.755150
155PDTO3PDTUMATILLA - AT PENDLETONORUMATILLA10502024-07-23 22:00:004.18360
156RDLO3MFRCOW CREEK - NEAR RIDDLEORDOUGLAS7232024-07-23 22:00:001.25810
157CHJW1OTXCOLUMBIA - CHIEF JOSEPH DAMWADOUGLAS8202024-07-23 22:00:00952.4 0
158LGSW1UnkSNAKE - LITTLE GOOSE DAMWAWHITMAN7022024-07-23 22:00:00634.16 0
159AURO3PQRPUDDING - AT AURORAORMARION722024-07-23 22:00:004.98610
160CGMW1SEWCHEHALIS - NEAR GRAND MOUNDWATHURSTON1242024-07-23 22:00:00129.092220
161SCOO3PQRSCOGGINS CREEK - NEAR GASTONORWASHINGTON1572024-07-23 22:00:006.071370
162CGRO3PQRSF MCKENZIE - COUGAR DAMORLANE12622024-07-23 22:00:001606.46 0
163IHDW1PDTSNAKE - ICE HARBOR DAMWAFRANKLIN3682024-07-23 22:00:00437.82 0
164MFNW1SEWMF NOOKSACK - NEAR DEMINGWAWHATCOM5802024-07-23 22:00:003.223060
165ELWW1SEWELWHA - AT MCDONALD BRIDGE NEAR PORT ANGELESWACLALLAM2002024-07-23 22:00:009.665990
166IMNO3PDTIMNAHA - AT IMNAHAORWALLOWA19682024-07-23 22:00:001.931710
167LMNW1UnkSNAKE - LOWER MONUMENTAL DAMWAWALLA WALLA4592024-07-23 22:00:00537.79 0
168CTAW1SEWSKOOKUMCHUCK - AT CENTRALIAWALEWIS1002024-07-23 22:00:00177.342210
169PACW1SEWCOWLITZ - AT PACKWOODWALEWIS10482024-07-23 22:00:000.927270
170TRYO3PDTGRANDE RONDE - TROYORWALLOWA15862024-07-23 22:00:003.034820
171CWMO3MFRCOW CREEK - NEAR GLENDALEORDOUGLAS10102024-07-23 22:00:000.37340
172SNAW1SEWSNOHOMISH - AT SNOHOMISHWASNOHOMISH352024-07-23 22:00:005.45180000
173GSVO3MFRCOW CREEK - GALESVILLE RESERVOIRORDOUGLAS18812024-07-23 22:00:001874.18 0
174WSLO3PQRTUALATIN - AT WEST LINNORCLACKAMAS852024-07-23 22:00:003.082720
175PHIO3PQRMARYS - NEAR PHILOMATHORBENTON2242024-07-23 22:00:002.23280
176RIGI1MSOLITTLE SALMON - AT RIGGINSIDIDAHO17602024-07-23 22:00:002.682410
177TDAO3PDTCOLUMBIA - THE DALLES DAMORWASCO802024-07-23 22:00:00158.67 0
178DGGI1PIHTETON - AB S. LEIGH CR NR DRIGGSIDTETON59532024-07-23 22:00:001.974670
179SKOW1SEWNF SKOKOMISH - BELOW STAIRCASE RAPIDS NEAR HOODSPORTWAMASON7622024-07-23 22:00:003.04870
180ABOM8MSOCLARK FORK - ABOVE MISSOULAMTMISSOULA31982024-07-23 22:00:002.3310180
181NISW1SEWNISQUALLY - NEAR NATIONALWAPIERCE14502024-07-23 22:00:005.066470
182JHNO3PDTJOHN DAY - NEAR JOHN DAYORGRANT31312024-07-23 22:00:003.41320
183SMNI1MSOSALMON - AT SALMONIDLEMHI39112024-07-23 22:00:005.356638
184SWRM8MSOSWAN - NEAR BIGFORKMTLAKE30632024-07-23 22:00:002.798190
185CLFW1PDTNACHES - NEAR CLIFFDELWAYAKIMA22802024-07-23 22:00:0027.323580
186UNDW1PDTWHITE SALMON - NEAR UNDERWOODWAKLICKITAT1132024-07-23 22:00:003.838640
187BELM8MSOCLARK FORK - BELOW MISSOULAMTMISSOULA30842024-07-23 22:00:000.7715500
188MMRW1SEWWHITE - AT MUD MOUNTAIN DAMWAKING13302024-07-23 22:00:00922.41 0
189WSRI1BOIWEISER - NEAR WEISERIDWASHINGTON22062024-07-23 22:00:004.241950
190MPLO3PQRSIUSLAW - NEAR MAPLETONORLANE412024-07-23 22:00:003.261970
191LYDM8MSOKOOTENAI - LIBBY DAMMTLINCOLN24592024-07-23 22:00:002456.1 0
192NSSW1SEWSF NOOKSACK - AT SAXON BRIDGEWAWHATCOM3802024-07-23 22:00:000.741510
193TIDO3PQRALSEA - NEAR TIDEWATERORLINCOLN482024-07-23 22:00:001.61190
194CANO3PQRMOLALLA - NEAR CANBYORCLACKAMAS942024-07-23 22:00:0010.43930
195HHDW1SEWGREEN - HOWARD HANSON DAMWAKING12062024-07-23 22:00:001164.42 0
196DORO3PQRROW - DORENA DAMORLANE8202024-07-23 22:00:002.021040
197FOSO3PQRSOUTH SANTIAM - FOSTER DAMORLINN5502024-07-23 22:00:00635.59 0
198POWO3MFRSF COQUILLE - AT POWERSORCOOS2202024-07-23 22:00:000.46330
199WYDW1SEWWYNOOCHEE - WYNOOCHEE DAMWAGRAYS HARBOR8102024-07-23 22:00:00792.64 0
200SPDI1OTXCLEARWATER - AT SPALDINGIDNEZ PERCE7702024-07-23 22:00:006.11125310
201HAHW1SEWGREEN - BELOW HOWARD HANSON DAMWAKING9902024-07-23 22:00:004.543360
202KBDM8MSOKOOTENAI - BELOW LIBBY DAMMTLINCOLN21002024-07-23 22:00:0021.08131990
203BUSO3BOISILVIES - NEAR BURNSORHARNEY41952024-07-23 22:00:000.6560
204FFXW1SEWCARBON - NEAR FAIRFAXWAPIERCE12132024-07-23 22:00:007.122870
205PITW1PDTKLICKITAT - NEAR PITTWAKLICKITAT2892024-07-23 22:00:004.329320
206HCRO3PQRMF WILLAMETTE - HILLS CREEK DAMORLANE15442024-07-23 22:00:002.634340
207ALFW1OTXPEND OREILLE - ALBENI FALLS DAMWAPEND OREILLE20502024-07-23 22:00:00121000
208RODW1SEWSKAGIT - ROSS RESERVOIRWAWHATCOM16052024-07-23 22:00:001585.97 0
209DONO3BOIDONNER UND BLITZEN - NR FRENCHGLENORHARNEY42602024-07-23 22:00:002.05650
210DEEO3MFRDEER CREEK - NEAR ROSEBURGORDOUGLAS6902024-07-23 21:52:002.0540
211CBAO3PQRCOLUMBIA - AT PORT WESTWARD NR QUINCYORCOLUMBIA-12024-07-23 21:50:002.72 0
212LSMO3PQRLITTLE N SANTIAM - NEAR MEHAMAORMARION6552024-07-23 21:50:002.86820
213SUVO3PQRLUCKIAMUTE - NEAR SUVERORPOLK1722024-07-23 21:50:002.6760
214FPOM8MSOFLATHEAD - NEAR POLSONMTLAKE26932024-07-23 21:50:005.7478750
215BONM8MSOBLACKFOOT - NEAR BONNERMTMISSOULA33452024-07-23 21:45:001.914930
216TRSO3PQRTHOMAS CREEK - NEAR SCIOORLINN3802024-07-23 21:45:003.99280
217RCCM8MSOROCK CREEK - NEAR CLINTONMTMISSOULA35192024-07-23 21:45:005.383120
218PACI1OTXPARADISE CREEK - AT UNIVERSITY OF IDAHO AT MOSCOWIDLATAH25442024-07-23 21:45:003.6700
219TRYM8MSOYAAK - NEAR TROYMTLINCOLN18392024-07-23 21:45:003.192270
220LSDW1OTXLITTLE SPOKANE - AT DARTFORDWASPOKANE15902024-07-23 21:45:002.26990
221EMMI1BOIPAYETTE - NEAR EMMETTIDGEM24002024-07-23 21:45:003.320920
222IPDI1PIHHENRYS FORK - ISLAND PARK DAMIDFREMONT63022024-07-23 21:45:006296.73 0
223NFFQ2MSONF FLATHEAD - NEAR FLATHEAD BCBCBR COLUMBIA39682024-07-23 21:45:004.784470
224PUYW1SEWPUYALLUP - AT PUYALLUPWAPIERCE502024-07-23 21:45:0011.5819450
225SSUW1SEWSF SKOKOMISH - NEAR UNIONWAMASON1032024-07-23 21:45:000.051230
226FCFM8MSONF FLATHEAD - NEAR COLUMBIA FALLSMTFLATHEAD31452024-07-23 21:45:002.9418910
227WHRM8MSOWHITEFISH - NEAR KALISPELLMTFLATHEAD29702024-07-23 21:45:001.971350
228RIDI1PIHWILLOW CREEK - RIRIE DAMIDJEFFERSON51192024-07-23 21:45:005108.02 0
229AUBW1SEWGREEN - NEAR AUBURNWAKING702024-07-23 21:45:0056.82800
230AFRI1PIHSNAKE - AMERICAN FALLS RESERVOIRIDPOWER43702024-07-23 21:45:004342.55 0
231ESTO3PQRCLACKAMAS - AT ESTACADAORCLACKAMAS2972024-07-23 21:45:0011.459390
232SNDO3PQRSANDY - SANDYORCLACKAMAS2402024-07-23 21:45:008.176130
233WILW1PQRWILLAPA - NEAR WILLAPAWAPACIFIC42024-07-23 21:45:003.1480
234MIDI1BOIMF SALMON - MIDDLE FORK LODGEIDCUSTER44802024-07-23 21:45:001.948400
235BITM8MSOBITTERROOT - NEAR MISSOULAMTMISSOULA31102024-07-23 21:45:002.724710
236ISLI1PIHHENRYS FORK - NEAR ISLAND PARK DAMIDFREMONT62252024-07-23 21:45:004.8215020
237CAMI1BOIWEISER - NEAR CAMBRIDGEIDWASHINGTON26602024-07-23 21:45:002.85800
238DSRW1SEWDESCHUTES - NEAR RAINIERWATHURSTON3492024-07-23 21:45:003.11350
239DRBI1BOIDEADWOOD - BELOW DEADWOOD RESIDVALLEY51922024-07-23 21:45:006.39140
240SPOW1OTXSPOKANE - AT SPOKANEWASPOKANE16962024-07-23 21:45:0017.459550
241COQO3MFRCOQUILLE - AT COQUILLEORCOOS232024-07-23 21:45:005.42 0
242THRM8MSOTHOMPSON - NEAR THOMPSON FALLSMTSANDERS24292024-07-23 21:45:002.791550
243LWRI1PIHLITTLE WOOD - LITTLE WOOD DAMIDBLAINE51002024-07-23 21:45:005217.14 0
244ENVI1OTXNF COEUR D ALENE - AT ENAVILLEIDSHOSHONE21002024-07-23 21:45:0057.153080
245JLKW4RIWSNAKE - JACKSON LAKE AT DAMWYTETON67282024-07-23 21:45:004.7518080
246PORI1OTXKOOTENAI - AT PORTHILLIDBOUNDARY02024-07-23 21:45:0044.77 0
247DEDI1BOIDEADWOOD - NEAR LOWMANIDVALLEY53342024-07-23 21:45:006.26 0
248WRAW1SEWWHITE - AT R STREETWAKING1152024-07-23 21:45:00111.469180
249HHWM8MSOSF FLATHEAD - HUNGRY HORSE DAMMTFLATHEAD35602024-07-23 21:45:003556.37 0
250BIGI1BOIBOISE - AT GLENWOOD BRIDGEIDADA26002024-07-23 21:45:004.468020
251TILW1SEWTILTON - NEAR CINEBARWALEWIS6002024-07-23 21:45:002.52980
252ANTI1PIHHENRYS FORK - AT ST. ANTHONYIDFREMONT49512024-07-23 21:45:003.3710250
253KRBO3MFRILLINOIS - AT KERBYORJOSEPHINE12102024-07-23 21:45:001.03640
254CSDI1BOINF PAYETTE - CASCADE DAMIDVALLEY48282024-07-23 21:45:004823.04 0
255BCDW1SEWSKOOKUMCHUCK - NEAR BUCODAWATHURSTON1952024-07-23 21:45:00203.5830
256PARI1BOIBOISE - NEAR PARMAIDCANYON21962024-07-23 21:45:007.854720
257PLNM8MSOCLARK FORK - NEAR PLAINSMTSANDERS24492024-07-23 21:45:004.62107550
258MODO3PDTDESCHUTES - AT MOODY NR BIGGSORWASCO1672024-07-23 21:45:002.8242600
259OKMW1OTXOKANOGAN - AT MALOTTWAOKANOGAN7832024-07-23 21:45:003.412860
260FISM8MSOFISHER - NEAR LIBBYMTFLATHEAD21342024-07-23 21:45:002.87930
261CRPW1SEWCHEHALIS - AT PORTERWAGRAYS HARBOR242024-07-23 21:45:0030.734590
262BWKI1PIHBIG WOOD - NEAR KETCHUMIDBLAINE62402024-07-23 21:45:005.17900
263NEWW1SEWNEWAUKUM - NEAR CHEHALISWALEWIS1902024-07-23 21:45:00192.6600
264WODI1PIHLITTLE WOOD - NEAR CAREYIDBLAINE49912024-07-23 21:45:002.331670
265CFMM8MSOFLATHEAD - AT COLUMBIA FALLSMTFLATHEAD29782024-07-23 21:45:005.2367670
266MNSW1SEWWYNOOCHEE - NEAR MONTESANOWAGRAYS HARBOR402024-07-23 21:45:0027.23040
267SPEW1SEWSOUTH PRAIRIE - AT SOUTH PRAIRIEWAPIERCE4302024-07-23 21:45:0023.89410
268THNW1SEWTHUNDER CREEK - NEAR NEWHALEMWAWHATCOM12202024-07-23 21:45:007.99370
269SFLN2PIHSALMON FALLS CREEK - NR SAN JACINTONVELKO02024-07-23 21:45:005.27430
270TLYO3PQRCLACKAMAS - THREE LYNXORCLACKAMAS11202024-07-23 21:45:000.747860
271SRLM8MSOSTILLWATER - NEAR LAWRENCE PARKMTFLATHEAD29532024-07-23 21:45:002.911280
272PRII1OTXPOTLATCH - BELOW LITTLE POTLATCHIDNEZ PERCE02024-07-23 21:45:004.2520
273SAKW1SEWSAUK - NEAR SAUKWASKAGIT2662024-07-23 21:45:004.0125220
274SRGM8MSOCLARK FORK - AT ST REGISMTMINERAL26002024-07-23 21:45:004.9922870
275EASI1OTXMOYIE - AT EASTPORTIDBOUNDARY26202024-07-23 21:45:003.641210
276TOTW1PQRTOUTLE - AT TOWER ROAD NEAR SILVER LAKEWACOWLITZ1702024-07-23 21:45:00120.67180
277WGCM8MSOMF FLATHEAD - NEAR WEST GLACIERMTFLATHEAD31292024-07-23 21:45:002.8218250
278MYNO3MFRNF COQUILLE - NEAR MYRTLE POINTORCOOS22024-07-23 21:45:003.951000
279HAGW1OTXHANGMAN CREEK - AT SPOKANEWASPOKANE17172024-07-23 21:45:000.9790
280WHBI1MSOSALMON - AT WHITEBIRDIDIDAHO14132024-07-23 21:45:0013.1350120
281VICM8MSOBITTERROOT - NEAR VICTORMTRAVALLI33302024-07-23 21:45:004.12180
282BEAO3PQRNESTUCCA - NEAR BEAVERORTILLAMOOK432024-07-23 21:45:004.55830
283COCO3PQRCLACKAMAS - NEAR OREGON CITYORCLACKAMAS152024-07-23 21:45:0023.278480
284PIHI1PIHPORTNEUF - AT POCATELLOIDBANNOCK44202024-07-23 21:45:003.21810
285MCZO3PQRMCKENZIE - NEAR WALTERVILLEORLANE6002024-07-23 21:45:002.2621680
286SFCM8MSOSF FLATHEAD - NR COLUMBIA FALLSMTFLATHEAD02024-07-23 21:45:006.3531300
287PILW1SEWPILCHUCK - NEAR SNOHOMISHWASNOHOMISH02024-07-23 21:45:009.93860
288STRM8MSOST. REGIS - NEAR ST. REGISMTMINERAL26452024-07-23 21:45:002.11380
289HALI1PIHBIG WOOD - AT HAILEYIDBLAINE52952024-07-23 21:45:001.862290
290TCHW1PDTWALLA WALLA - NEAR TOUCHETWAWALLA WALLA4052024-07-23 21:30:002.38190
291SKRW1SEWSKOOKUMCHUCK - AT SKOOKUMCHUCK RESERVOIRWALEWIS4802024-07-23 21:30:00457.58 1
292STHW1OTXSTEHEKIN - AT STEHEKINWACHELAN10992024-07-23 21:30:0019.9210320
293SCRO3MFRSTEAMBOAT CREEK - NEAR GLIDEORDOUGLAS11292024-07-23 21:30:000.31570
294GLBW1SEWSKYKOMISH - NEAR GOLD BARWASNOHOMISH2092024-07-23 21:30:005.2610480
295SYCO3PQRJOHNSON CREEK - AT SYCAMOREORMULTNOMAH2282024-07-23 21:30:001.2120
296NKSW1SEWNOOKSACK - AT FERNDALEWAWHATCOM52024-07-23 21:30:004.7520250
297NASW1PQRNASELLE - NEAR NASELLEWAPACIFIC242024-07-23 21:30:004.24490
298OCUO3PQRWILLAMETTE - AB FALLS AT OR CITYORCLACKAMAS502024-07-23 21:30:0056.07 0
299TILO3MFRS UMPQUA - AT TILLERORDOUGLAS10402024-07-23 21:30:000.82710
300SQUW1SEWSNOQUALMIE - NEAR SNOQUALMIEWAKING1202024-07-23 21:30:003.437560
301OWYO3BOIOWYHEE - OWYHEE DAMORMALHEUR24002024-07-23 21:30:002.162530
302MORI1BOIMORES CREEK - NR ARROWROCK DAMIDADA31202024-07-23 21:30:001.89340
303HODO3PQRHOOD - NEAR TUCKER BRIDGEORHOOD RIVER3832024-07-23 21:30:003.24410
304LRWW1PQRLEWIS - AT WOODLANDWACLARK102024-07-23 21:30:008.42 0
305TLMO3PQRWILSON - NEAR TILLAMOOKORTILLAMOOK422024-07-23 21:30:003.541180
306PERM8MSOFLATHEAD - AT PERMAMTSANDERS25692024-07-23 21:30:008.7781540
307COKW1SEWCOWLITZ - NEAR KOSMOSWALEWIS7802024-07-23 21:30:0064.359740
308ALPW4RIWSNAKE - NEAR ALPINEWYLINCOLN56842024-07-23 21:30:004.3937710
309WNRO3MFRN UMPQUA - AT WINCHESTERORDOUGLAS3722024-07-23 21:30:002.079390
310ARAI1BOISF BOISE - ANDERSON RANCH DAMIDELMORE38802024-07-23 21:30:004184.78 0
311JKSW4RIWSNAKE - NEAR JACKSONWYTETON59502024-07-23 21:30:003.0935000
312PLOI1OTXPALOUSE - NEAR POTLATCHIDLATAH24552024-07-23 21:30:004.9350
313TNAW1PDTTEANAWAY - BELOW FORKSWAKITTITAS23002024-07-23 21:30:0010.43670
314BFKW4RIWBUFFALO FK - AB LAVA CR NR MORANWYTETON67732024-07-23 21:30:001.856350
315SILO3PQRSILETZ - AT SILETZORLINCOLN1022024-07-23 21:30:002.491200
316NRKW1SEWNOOKSACK - AT CEDARVILLEWAWHATCOM02024-07-23 21:30:00138.9415600
317KERM8MSOFLATHEAD - SELI’Š KSANKA QLISPE’ DAMMTLAKE27302024-07-23 21:30:002892.99 0
318HCDI1PDTSNAKE - AT HELLS CANYON DAMIDADAMS14002024-07-23 21:30:0066.14163900
319FLGW4RIWSNAKE - AB JACKSON L AT FLAGG RWYTETON68022024-07-23 21:30:002.592770
320CALW1SEWCALAWAH - NEAR FORKSWACLALLAM2102024-07-23 21:30:002.671000
321CHTO3MFRCHETCO - NEAR BROOKINGSORCURRY502024-07-23 21:30:000.061100
322BDDI1BOIBOISE - BELOW DIV DAMIDADA28002024-07-23 21:30:007.8216230
323PLDI1PIHSF SNAKE - PALISADES DAMIDBONNEVILLE53532024-07-23 21:30:005605.93 0
324COEI1OTXCOEUR D ALENE - COEUR D ALENE LAKEIDKOOTENAI21602024-07-23 21:30:002127.98 0
325SKBW1SEWNF SKOKOMISH - NEAR LOWER CUSHMAN DAM NEAR POTLATCHWAMASON3282024-07-23 21:30:001.551240
326SSFW1SEWSF STILLAGUAMISH - AT JORDAN ROADWASNOHOMISH1952024-07-23 21:30:005.072320
327AGNO3MFRROGUE - NEAR AGNESORCURRY1132024-07-23 21:30:002.718750
328MADO3BOIMALHEUR - NEAR DREWSEYORHARNEY34792024-07-23 21:30:001.9720
329SERO3PDTJOHN DAY - AT SERVICE CKORWHEELER16322024-07-23 21:30:001.741360
330CASW1PQRCOWLITZ - AT CASTLE ROCKWACOWLITZ202024-07-23 21:30:0032.6428070
331PRTO3PQRWILLAMETTE - AT PORTLANDORMULTNOMAH22024-07-23 21:30:002.78 0
332SNYI1BOISNAKE - AT NYSSAIDCANYON51702024-07-23 21:30:005.96107050
333AMFI1PIHSNAKE - AT AMERICAN FALLS DAMIDPOWER42122024-07-23 21:30:006.6134210
334NITW1OTXSIMILKAMEEN - NEAR NIGHTHAWKWAOKANOGAN11382024-07-23 21:30:002.957130
335DOTW1SEWCHEHALIS - NEAR DOTYWALEWIS3022024-07-23 21:30:00306.38480
336NSPW1SEWNF SKOKOMISH - NEAR POTLATCHWAMASON632024-07-23 21:30:002.741470
337FRMO3PQRTUALATIN - AT FARMINGTONORWASHINGTON1002024-07-23 21:30:004.311880
338SRCW1SEWSKOKOMISH - AT CONFLUENCEWAMASON542024-07-23 21:30:002700
339DLGM8MSOCLARK FORK - AT DEER LODGEMTPOWELL45002024-07-23 21:30:002.27550
340VALO3BOIMALHEUR - NEAR VALEORMALHEUR22202024-07-23 21:30:0010.91670
341PRVO3PDTCROOKED - NR PRINEVILLEORCROOK30712024-07-23 21:30:003.492640
342CLUW1PDTCLE ELUM - CLE ELUM LAKEWAKITTITAS22402024-07-23 21:15:002178.12 0
343CORO3PQRWILLAMETTE - AT CORVALLISORBENTON1922024-07-23 21:15:0010.4752180
344ISSW1SEWISSAQUAH CREEK - NEAR MOUTHWAKING362024-07-23 21:15:004.03210
345MFPI1BOIMF PAYETTE - NEAR CROUCHIDBOISE30402024-07-23 21:15:005.631400
346NACW1PDTNACHES - NEAR NACHESWAYAKIMA15502024-07-23 21:15:0012.944190
347BERO3BOIMALHEUR - AGENCY VALLEY DAMORMALHEUR33052024-07-23 21:15:003329.13 0
348DRSW1SEWDUNGENESS - NEAR SEQUIMWACLALLAM5692024-07-23 21:15:002.811910
349OCDO3PDTOCHOCO CREEK - OCHOCO DAM NR PRINVILLEORCROOK31432024-07-23 21:15:003119.43 0
350MORW1SEWCEDAR - CHESTER MORSE LAKEWAKING15602024-07-23 21:00:001559.03 0
351WANW1OTXCOLUMBIA - WANAPUM DAMWAGRANT5702024-07-23 21:00:00565.81 0
352UBDW1SEWBAKER - UPPER BAKER LAKEWAWHATCOM3932024-07-23 21:00:00725.41 0
353PRWW1OTXCOLUMBIA - PRIEST RAPIDS DAMWAGRANT4602024-07-23 21:00:00484.55 0
354KADW1PDTKACHESS - KACHESS DAMWAKITTITAS22692024-07-23 21:00:002235.4 0
355MSRW1SEWCOWLITZ - MOSSYROCK RESERVOIRWALEWIS6792024-07-23 21:00:00743.66 0
356KEDW1PDTYAKIMA - KEECHELUS LAKEWAKITTITAS24792024-07-23 21:00:002458.78 0
357MKDO3PDTMCKAY CREEK - PENDLETONORUMATILLA13332024-07-23 21:00:001299.04 0
358EASW1PDTYAKIMA - AT EASTONWAKITTITAS21352024-07-23 21:00:0047.721840
359ALRW1SEWNISQUALLY - ALDER RESERVOIRWAPIERCE12102024-07-23 21:00:001203.21 0
360MYDW1PQRCOWLITZ - MAYFIELD RESERVOIRWALEWIS2802024-07-23 21:00:00421.88 0
361RISW1OTXCOLUMBIA - BLO ROCK ISLAND DAMWADOUGLAS6092024-07-23 21:00:00611.56 0
362HOPI1OTXPEND OREILLE - LAKE PEND OREILLE NR HOPEIDBONNER20002024-07-23 21:00:002061.88 0
363RRHW1OTXCOLUMBIA - ROCKY REACH DAMWACHELAN7032024-07-23 21:00:00705.2 0
364SPRO3PQRMOHAWK - NEAR SPRINGFIELDORLANE4422024-07-23 20:45:001.02490
365LERI1MSOLEMHI - NEAR LEMHIIDLEMHI49602024-07-23 20:45:003.49650
366UNYO3PDTBURNT - NR HEREFORDORBAKER37582024-07-23 20:15:003.511200
367REVQ2UnkCOLUMBIA - REVELSTOKE DAMBCBR COLUMBIA18802024-07-23 20:00:001846.42 0
368DCDQ2UnkDUNCAN - DUNCAN DAMBCBR COLUMBIA18012024-07-23 20:00:001875.58 0
369SLCQ2UnkSLOCAN - NEAR CRESCENT VALLEYBCBR COLUMBIA14992024-07-23 20:00:004.9733900
370MCDQ2UnkCOLUMBIA - MICA DAMBCBR COLUMBIA24752024-07-23 20:00:002441.34166791150
371ARDQ2OTXCOLUMBIA - ARROW LAKES (HUGH KEENLEYSIDE DAM)BCBR COLUMBIA14202024-07-23 20:00:001427.87 0
372EGCO3BOIEAGLE CREEK - ABOVE SKULL CKORBAKER28002024-07-23 19:45:000.91240
373PVDO3PDTCROOKED - PRINEVILLE RESERVOIRORCROOK32602024-07-23 17:45:003225.38 0
374CHDW1OTXCHELAN - LAKE CHELAN DAMWACHELAN9952024-07-23 14:00:001099.6 0
375BIRQ2UnkCOLUMBIA - AT BIRCHBANKBCBR COLUMBIA13292024-07-23 07:00:0020.08932300
376BRNI1BOISNAKE - BROWNLEE DAMIDADAMS18442024-07-23 07:00:002061.89 0
377QBYQ2UnkKOOTENAI - KOOTENAY L AT QUEENS BAYBCBR COLUMBIA18002024-07-23 07:00:001743.29 0
378LLKW1OTXSPOKANE - AT LONGLAKEWALINCOLN12992024-07-23 06:59:001535.5 0
379CABI1OTXCLARK FORK - CABINET GORGE DAMIDBONNER22602024-07-23 06:59:002172.48 0
380NOXM8MSOCLARK FORK - NOXON RAPIDS DAMMTSANDERS22702024-07-23 06:59:002329.43 0
381KEEW1PDTYAKIMA - NEAR MARTINWAKITTITAS2479 0
382MAKI1PIHBIG LOST - BLO MACKAY RESIDCUSTER594600
383OWCO3BOIOWYHEE CANAL AT OWYHEE DAMORMALHEUR2500 0
384RIMW1PDTTIETON - AT TIETON DAMWAYAKIMA2926 0
385MILI1PIHSNAKE - AT MILNERIDCASSIA40631.5 0
386RSBO3MFRS UMPQUA - AT ROSEBURGORDOUGLAS41400
387REEO3PQRUMPQUA - AT REEDSPORTORDOUGLAS0 0
388SHDW1SEWBAKER - LAKE SHANNONWASKAGIT156 0
389ARKI1BOIBOISE - ARROWROCK DAMIDELMORE3275 0
390WLSO3PQRWILLAMETTE - AT WILSONVILLEORCLACKAMAS5031000
391CLEW1PDTCLE ELUM - NEAR ROSLYNWAKITTITAS2240 0
392KELW1PQRCOWLITZ - AT KELSOWACOWLITZ2 0
393KACW1PDTKACHESS - NEAR EASTONWAKITTITAS2269 0
394BUMW1PDTBUMPING - BELOW BUMPING DAMWAYAKIMA34411.2 0
395BONO3PQRCOLUMBIA - BONNEVILLE DAMORMULTNOMAH62 0
396SMKQ2UnkSIMILKAMEEN - NEAR HEDLEYBCBR COLUMBIA01140














Loading Hydrograph...